Tracking 35334 objects as of 13-Sep-2026
HD Live streaming from Space Station
objects crossing your sky now

CZ-4C DEB


CZ-4C DEB is no longer on orbit


NORAD ID: 44212
Int'l Code: 2019-024F
Launch date: April 29, 2019
Source: People's Republic of China (PRC)
Launch site: Taiyaun Space Center, China (TSC)
Decay date: 2023-07-11

Note: This is SATELLITE DEBRIS
Your satellite tracking list
Your tracking list is empty




NASA's NSSDC Master Catalog

Two Line Element Set (TLE):
1 44212U 19024F   23189.56607893  .09558450  25278-5  10486-2 0  9992
2 44212  97.3766 218.3116 0012942 244.7027 115.2931 16.37070715233646
Source of the keplerian elements: AFSPC